Location: Pian di Sc�
(43.6333°N, 11.5500°E)
Time: 17:57:01
(UTC+00:00)

BREEZE-M TANK - Pass Details

Date: 07 August 2020
Orbit: 507 x 24779 km, 45.2° (Epoch: 17 September)

Event Time Altitude Azimuth Distance (km) Brightness Sun altitude
Exits shadow 00:35:49 32° 74° (ENE) 994 3.8 -27.5°
Drops below altitude 10° 00:38:31 10° 84° (E) 2,344 5.8 -27.4°
Sets 00:42:02 0° 86° (E) 4,149 7.1 -27.1°
